Regional Weather Roundup
Issued by NWS Green Bay, WI

Home | Current Version | Previous Version | Graphics & Text | Print | Product List | Glossary Off
Versions: 1 2 3 4 5 6 7 8 9 10 11 12 13 14 15 16 17 18 19 20 21 22 23 24 25 26 27 28 29 30 31 32 33 34 35 36 37 38 39 40 41 42 43 44 45 46 47 48 49 50

000
ASUS43 KGRB 291611
RWRGRB

NORTH-CENTRAL AND NORTHEAST WISCONSIN REGIONAL WEATHER ROUNDUP
NATIONAL WEATHER SERVICE GREEN BAY WI
1100 AM CDT FRI MAY 29 2015

WIZ005-009-010>012-018-019-291700-
NORTH CENTRAL WISCONSIN

CITY           SKY/WX    TMP DP  RH WIND       PRES   REMARKS
IRONWOOD       CLOUDY    66  61  82 SW7       29.85S
MANITOWISH WTR CLOUDY    66  61  83 SW10G16   29.91S
ARBOR VITAE    CLOUDY    69  62  77 SW8       29.92S
EAGLE RIVER    PTSUNNY   70  58  64 SW12G17   29.91F
LAND O LAKES   CLOUDY    71  59  66 SW9       29.92S
RHINELANDER    CLOUDY    71  60  68 S12G23    29.93F
PHILLIPS       CLOUDY    66  61  84 SW9       29.91F
ANTIGO         CLOUDY    68  63  83 SW12G18   29.96F
TOMAHAWK       CLOUDY    68  61  76 S7        29.93S
MERRILL        CLOUDY    70  63  78 SW9       29.95S
$$

WIZ013-073-291700-
NORTHEAST WISCONSIN

CITY           SKY/WX    TMP DP  RH WIND       PRES   REMARKS
IRON MOUNTAIN  PTSUNNY   69  61  75 S10       29.93S
MARINETTE      CLOUDY    64  59  82 SW9       29.96F
OCONTO         CLOUDY    66  66  98 S3        29.97S
$$

WIZ017-030-035>037-045-291700-
CENTRAL WISCONSIN

CITY           SKY/WX    TMP DP  RH WIND       PRES   REMARKS
MEDFORD        CLOUDY    65  62  89 SW12      29.94S
WAUSAU         CLOUDY    70  62  76 S12       29.93F
MOSINEE        CLOUDY    68  63  83 S14       29.96F
MARSHFIELD     PTSUNNY   70  62  76 SW13      29.95S
WISC RAPIDS    CLOUDY    71  62  73 SW15G21   29.96F
STEVENS POINT  CLOUDY    69  62  78 SW10G16   29.96F
WAUPACA        LGT RAIN  70  66  87 S6        29.97S
SHAWANO        CLOUDY    69  63  80 S7        29.96F
CLINTONVILLE   CLOUDY    68  61  77 S7        29.96F
$$

WIZ038-039-048-051-291700-
FOX VALLEY

CITY           SKY/WX    TMP DP  RH WIND       PRES   REMARKS
NWS GREEN BAY  LGT RAIN  70  63  78 SW8       29.98S
APPLETON       CLOUDY    66  63  88 S10       29.99S
OSHKOSH        CLOUDY    70  63  78 S10       29.97F
FOND DU LAC    CLOUDY    74  65  73 S14       29.97F
$$

WIZ022-050-052-291700-
EAST CENTRAL WISCONSIN

CITY           SKY/WX    TMP DP  RH WIND       PRES   REMARKS
STURGEON BAY   CLOUDY    61  55  82 SE6       30.01F
MANITOWOC      CLOUDY    63  60  90 S9        30.00F
SHEBOYGAN      CLOUDY    70  65  84 S7        30.00F
$$

LMZ563-521-522-541>543-291700-
LAKESHORE

STATION/POSITION TIME  TEMP    WIND        PRES    VSBY  WAVE
                       AIR SEA DIR/SP/G                  HT/PER
                 (UTC) (F)     (DEG/KT/KT) (MB)    (MI)  (FT/S)
SHEBOYGAN LKSHOR 1600   54     160/ 18/ 19 1016.1F
KEWAUNEE LKSHORE 1500   50     180/ 12/ 22 1015.4R
ALGOMA MARINA    1538          170/  1/  3   N/A
TWO RIVERS CG    1520   50                 1022.6   3 1/2  2
NORTHPORT PIER   1500   55     170/  6/ 10 1015.2F
N MID LAKE BUOY  1550   43 37  200/ 14/ 17 1016.4F         1
SISTER BAY LKSHO 1503   59     160/ 10/ 12   N/A
STURGEON BAY CG  1530   46     180/  8     1015.8    5/8   2
CHAMBERS ISLAND  1500   63     170/  4/  7 1015.2S
MENOMINEE LKSHOR 1500   60     180/  6/  9 1015.6S
$$



USA.gov is the U.S. government's official web portal to all federal, state and local government web resources and services.